Location: Dos Palmas
(32.4468°N, 116.8732°W)
Time: 04:45:50
(UTC+00:00)

Meteor 2-5 Rocket - Pass Details

Date: 20 June 2021
Orbit: 833 x 911 km, 81.2° (Epoch: 29 July)

Event Time Altitude Azimuth Distance (km) Brightness Sun altitude
Exits shadow 04:56:39 36° 106° (ESE) 1,305 4.2 -20.6°
Maximum altitude 04:57:16 37° 92° (E) 1,282 4.3 -20.7°
Drops below altitude 10° 05:02:19 10° 26° (NNE) 2,465 6.4 -21.4°
Sets 05:04:54 0° 19° (NNE) 3,412 7.3 -21.7°
